Tracking 28790 objects as of 19-Apr-2024
HD Live streaming from Space Station
objects crossing your sky now

PAS 6

Track PAS 6 now!
PAS 6 is classified as:


NORAD ID: 24891
Int'l Code: 1997-040A
Perigee: 34,793.4 km
Apogee: 40,693.4 km
Inclination: 10.0 °
Period: 1,536.8 minutes
Semi major axis: 44114 km
RCS: 18.6316 m2 (large)
Launch date: August 8, 1997
Source: United States (US)
Launch site: FRENCH GUIANA (FRGUI)
Your satellite tracking list
Your tracking list is empty




NASA's NSSDC Master Catalog

Two Line Element Set (TLE):
1 24891U 97040A   24109.79141916 -.00000209  00000-0  00000-0 0  9990
2 24891  10.0442 330.0697 0668713 237.5779 133.7433  0.93698391 69519
Source of the keplerian elements: AFSPC